Pueblo, CO

1:57 PM MST on January 20, 2017 (GMT -0700)
Pueblo Memorial

Weather History for KPUB - May, 2014

Change the Weather History Date:

Wednesday, May 28, 2014

  Actual Average Record
Temperature  
Mean Temperature 71 °F 64 °F  
Max Temperature 91 °F 80 °F 97 °F (1974)
Min Temperature 51 °F 48 °F 35 °F (1915)
Degree Days  
Heating Degree Days 0 3  
Month to date heating degree days 156 165  
Since 1 July heating degree days 5413 5605  
Cooling Degree Days 6 2  
Month to date cooling degree days 30 24  
Year to date cooling degree days 32 26  
Growing Degree Days 22 (Base 50)    
Moisture  
Dew Point 39 °F    
Average Humidity 42    
Maximum Humidity 71    
Minimum Humidity 13    
Precipitation  
Precipitation 0.00 in 0.05 in 0.59 in (1983)
Month to date precipitation 0.45 1.37  
Year to date precipitation 4.00 4.35  
Snow  
Snow 0.00 in 0.00 in 0.00 in (2002)
Month to date snowfall T 0.5  
Since 1 July snowfall 29.3 31.8  
Snow Depth 0.00 in    
Sea Level Pressure  
Sea Level Pressure 29.95 in    
Wind  
Wind Speed 9 mph (SSE)    
Max Wind Speed 23 mph    
Max Gust Speed 29 mph    
Visibility 10 miles    
Events      
T = Trace of Precipitation, MM = Missing Value Source: NWS Daily Summary

Daily Weather History Graph

Daily Weather History Graph

Search for Another Location

Airport or City:

Trip Planner

Search our weather history database for the weather conditions in past years. The results will help you decide how hot, cold, wet, or windy it might be!

Date:

Astronomy

May. 28, 2014 Rise Set
Actual Time 5:38 AM MDT 8:12 PM MDT
Civil Twilight 5:07 AM MDT 8:43 PM MDT
Nautical Twilight 4:29 AM MDT 9:22 PM MDT
Astronomical Twilight 3:46 AM MDT 10:04 PM MDT
Moon 5:45 AM MDT (5/28) 8:14 PM MDT (5/28)
Length of Visible Light 15h 36m
Length of Day
14h 34m
Waning Crescent, 0% of the Moon is Illuminated
May 28
Waning Crescent
May 28
New
Jun 5
First Quarter
Jun 12
Full
Jun 19
Last Quarter

Hourly Weather History & Observations

Time (MDT) Temp. Dew Point Humidity Pressure Visibility Wind Dir Wind Speed Gust Speed Precip Events Conditions
12:53 AM 63.0 °F 41.0 °F 45% 29.96 in 10.0 mi Calm Calm - N/A   Clear
1:53 AM 57.9 °F 42.1 °F 56% 29.97 in 10.0 mi Calm Calm - N/A   Clear
2:53 AM 55.9 °F 41.0 °F 57% 29.97 in 10.0 mi West 3.5 mph - N/A   Clear
3:53 AM 53.1 °F 42.1 °F 66% 29.97 in 10.0 mi WSW 8.1 mph - N/A   Clear
4:53 AM 53.1 °F 43.0 °F 69% 29.98 in 10.0 mi West 3.5 mph - N/A   Clear
5:53 AM 52.0 °F 43.0 °F 71% 29.99 in 10.0 mi West 4.6 mph - N/A   Clear
6:53 AM 59.0 °F 44.6 °F 59% 30.17 in 10.0 mi North 4.6 mph - N/A   Clear
7:53 AM 66.0 °F 46.0 °F 48% 29.97 in 10.0 mi West 9.2 mph - N/A   Clear
8:53 AM 71.1 °F 44.1 °F 38% 29.97 in 10.0 mi WSW 6.9 mph - N/A   Clear
9:53 AM 77.0 °F 43.0 °F 30% 29.96 in 10.0 mi NW 3.5 mph - N/A   Clear
10:53 AM 81.0 °F 39.9 °F 23% 29.96 in 10.0 mi Variable 3.5 mph - N/A   Clear
11:53 AM 82.4 °F 41.0 °F 23% 30.13 in 10.0 mi SSE 9.2 mph - N/A   Clear
12:53 PM 86.0 °F 37.0 °F 18% 29.91 in 10.0 mi SSE 13.8 mph - N/A   Clear
1:53 PM 88.0 °F 36.0 °F 16% 29.90 in 10.0 mi SSE 9.2 mph 18.4 mph N/A   Clear
2:53 PM 89.1 °F 34.0 °F 14% 29.88 in 10.0 mi SSE 6.9 mph 18.4 mph N/A   Clear
3:53 PM 89.6 °F 32.0 °F 13% 30.05 in 10.0 mi ESE 10.4 mph 21.9 mph N/A   Clear
4:53 PM 89.6 °F 33.8 °F 14% 30.03 in 10.0 mi East 17.3 mph 26.5 mph N/A   Clear
5:53 PM 87.1 °F 33.1 °F 15% 29.85 in 10.0 mi SE 15.0 mph - N/A   Clear
6:53 PM 84.0 °F 36.0 °F 18% 29.85 in 10.0 mi ESE 17.3 mph - N/A   Clear
7:53 PM 82.0 °F 37.9 °F 21% 29.85 in 10.0 mi ESE 15.0 mph - N/A   Clear
8:53 PM 78.1 °F 39.0 °F 25% 29.85 in 10.0 mi ESE 18.4 mph - N/A   Clear
9:53 PM 75.0 °F 39.0 °F 27% 29.87 in 10.0 mi SSE 6.9 mph - N/A   Clear
10:53 PM 69.1 °F 39.9 °F 35% 29.88 in 10.0 mi East 8.1 mph - N/A   Clear
11:53 PM 64.4 °F 39.2 °F 40% 30.07 in 10.0 mi East 5.8 mph - N/A   Clear